Time,TemperatureF,DewpointF,PressureIn,WindDirection,WindDirectionDegrees,WindSpeedMPH,WindSpeedGustMPH,Humidity,HourlyPrecipIn,Conditions,Clouds,dailyrainin,SoftwareType,DateUTC
2013-07-02 00:02:00,70.0,-99.9,-100.00,North,-999,-999.0,-999.0,-999,0.00,,,0.63,,2013-07-02 04:02:00,
2013-07-02 00:11:00,70.0,-99.9,-100.00,North,-999,-999.0,-999.0,-999,0.00,,,0.63,,2013-07-02 04:11:00,
2013-07-02 01:53:00,70.0,-99.9,-100.00,North,-999,-999.0,-999.0,-999,-99.99,,,0.62,,2013-07-02 05:53:00,
2013-07-02 02:02:00,70.0,-99.9,-100.00,North,-999,-999.0,-999.0,-999,-99.99,,,0.62,,2013-07-02 06:02:00,
2013-07-02 02:12:00,70.0,-99.9,-100.00,North,-999,-999.0,-999.0,-999,-99.99,,,0.62,,2013-07-02 06:12:00,
2013-07-02 02:53:00,70.0,-99.9,-100.00,North,-999,-999.0,-999.0,-999,0.01,,,0.63,,2013-07-02 06:53:00,
2013-07-02 03:01:00,70.0,-99.9,-100.00,North,-999,-999.0,-999.0,-999,0.01,,,0.63,,2013-07-02 07:01:00,
2013-07-02 03:12:00,70.0,-99.9,-100.00,North,-999,-999.0,-999.0,-999,0.01,,,0.63,,2013-07-02 07:12:00,
2013-07-02 03:53:00,71.0,-99.9,-100.00,North,-999,-999.0,-999.0,-999,0.00,,,0.63,,2013-07-02 07:53:00,
2013-07-02 04:02:00,71.0,-99.9,-100.00,North,-999,-999.0,-999.0,-999,0.00,,,0.63,,2013-07-02 08:02:00,
2013-07-02 04:12:00,71.0,-99.9,-100.00,North,-999,-999.0,-999.0,-999,0.00,,,0.63,,2013-07-02 08:12:00,
2013-07-02 04:53:00,71.0,-99.9,-100.00,North,-999,-999.0,-999.0,-999,0.00,,,0.63,,2013-07-02 08:53:00,
2013-07-02 05:02:00,71.0,-99.9,-100.00,North,-999,-999.0,-999.0,-999,0.00,,,0.63,,2013-07-02 09:02:00,
2013-07-02 05:12:00,71.0,-99.9,-100.00,North,-999,-999.0,-999.0,-999,0.00,,,0.63,,2013-07-02 09:12:00,
2013-07-02 05:52:00,71.0,-99.9,-100.00,North,-999,-999.0,-999.0,-999,0.00,,,-99.99,,2013-07-02 09:52:00,
2013-07-02 06:02:00,71.0,-99.9,-100.00,North,-999,-999.0,-999.0,-999,0.00,,,-99.99,,2013-07-02 10:02:00,
2013-07-02 06:11:00,71.0,-99.9,-100.00,North,-999,-999.0,-999.0,-999,0.00,,,-99.99,,2013-07-02 10:11:00,
2013-07-02 06:53:00,71.0,-99.9,-100.00,North,-999,-999.0,-999.0,-999,0.00,,,-99.99,,2013-07-02 10:53:00,
2013-07-02 07:02:00,71.0,-99.9,-100.00,North,-999,-999.0,-999.0,-999,0.00,,,-99.99,,2013-07-02 11:02:00,
2013-07-02 07:11:00,71.0,-99.9,-100.00,North,-999,-999.0,-999.0,-999,0.00,,,-99.99,,2013-07-02 11:11:00,
2013-07-02 08:52:00,74.0,-99.9,-100.00,North,-999,-999.0,-999.0,-999,-99.99,,,0.63,,2013-07-02 12:52:00,
2013-07-02 09:02:00,74.0,-99.9,-100.00,North,-999,-999.0,-999.0,-999,-99.99,,,0.63,,2013-07-02 13:02:00,
2013-07-02 09:11:00,74.0,-99.9,-100.00,North,-999,-999.0,-999.0,-999,-99.99,,,0.63,,2013-07-02 13:11:00,
2013-07-02 10:54:00,76.0,-99.9,-100.00,North,-999,-999.0,-999.0,-999,-99.99,,,0.63,,2013-07-02 14:54:00,
2013-07-02 11:02:00,76.0,-99.9,-100.00,North,-999,-999.0,-999.0,-999,-99.99,,,0.63,,2013-07-02 15:02:00,
2013-07-02 11:12:00,76.0,-99.9,-100.00,North,-999,-999.0,-999.0,-999,-99.99,,,0.63,,2013-07-02 15:12:00,
2013-07-02 11:53:00,75.0,-99.9,-100.00,North,-999,-999.0,-999.0,-999,0.00,,,-99.99,,2013-07-02 15:53:00,
2013-07-02 12:02:00,75.0,-99.9,-100.00,North,-999,-999.0,-999.0,-999,0.00,,,-99.99,,2013-07-02 16:02:00,
2013-07-02 12:12:00,75.0,-99.9,-100.00,North,-999,-999.0,-999.0,-999,0.00,,,-99.99,,2013-07-02 16:12:00,
2013-07-02 12:53:00,65.0,-99.9,-100.00,North,-999,-999.0,-999.0,-999,0.01,,,0.64,,2013-07-02 16:53:00,
2013-07-02 13:02:00,65.0,-99.9,-100.00,North,-999,-999.0,-999.0,-999,0.01,,,0.64,,2013-07-02 17:02:00,
2013-07-02 13:12:00,65.0,-99.9,-100.00,North,-999,-999.0,-999.0,-999,0.01,,,0.64,,2013-07-02 17:12:00,
2013-07-02 13:53:00,63.0,-99.9,-100.00,North,-999,-999.0,-999.0,-999,0.01,,,0.56,,2013-07-02 17:53:00,
2013-07-02 14:02:00,63.0,-99.9,-100.00,North,-999,-999.0,-999.0,-999,0.01,,,0.56,,2013-07-02 18:02:00,
2013-07-02 14:13:00,63.0,-99.9,-100.00,North,-999,-999.0,-999.0,-999,0.01,,,0.56,,2013-07-02 18:13:00,
2013-07-02 14:53:00,63.0,-99.9,-100.00,North,-999,-999.0,-999.0,-999,0.16,,,-99.99,,2013-07-02 18:53:00,
2013-07-02 15:01:00,63.0,-99.9,-100.00,North,-999,-999.0,-999.0,-999,0.16,,,-99.99,,2013-07-02 19:01:00,
2013-07-02 15:12:00,63.0,-99.9,-100.00,North,-999,-999.0,-999.0,-999,0.16,,,-99.99,,2013-07-02 19:12:00,
2013-07-02 15:43:00,63.0,-99.9,-100.00,North,-999,-999.0,-999.0,-999,0.03,,,-99.99,,2013-07-02 19:43:00,
2013-07-02 15:53:00,63.0,-99.9,-100.00,North,-999,-999.0,-999.0,-999,0.03,,,-99.99,,2013-07-02 19:53:00,
2013-07-02 16:02:00,63.0,-99.9,-100.00,North,-999,-999.0,-999.0,-999,0.03,,,-99.99,,2013-07-02 20:02:00,
2013-07-02 16:11:00,63.0,-99.9,-100.00,North,-999,-999.0,-999.0,-999,0.03,,,-99.99,,2013-07-02 20:11:00,
2013-07-02 16:52:00,63.0,-99.9,-100.00,North,-999,-999.0,-999.0,-999,0.00,,,0.64,,2013-07-02 20:52:00,
2013-07-02 17:04:00,63.0,-99.9,-100.00,North,-999,-999.0,-999.0,-999,0.00,,,0.64,,2013-07-02 21:04:00,
2013-07-02 17:12:00,63.0,-99.9,-100.00,North,-999,-999.0,-999.0,-999,0.00,,,0.64,,2013-07-02 21:12:00,
2013-07-02 17:52:00,63.0,-99.9,-100.00,North,-999,-999.0,-999.0,-999,0.00,,,0.64,,2013-07-02 21:52:00,
2013-07-02 18:02:00,63.0,-99.9,-100.00,North,-999,-999.0,-999.0,-999,0.00,,,0.64,,2013-07-02 22:02:00,
2013-07-02 18:11:00,63.0,-99.9,-100.00,North,-999,-999.0,-999.0,-999,0.00,,,0.64,,2013-07-02 22:11:00,
2013-07-02 19:52:00,62.0,-99.9,-100.00,North,-999,-999.0,-999.0,-999,-99.99,,,0.52,,2013-07-02 23:52:00,
2013-07-02 20:02:00,62.0,-99.9,-100.00,North,-999,-999.0,-999.0,-999,-99.99,,,0.52,,2013-07-03 00:02:00,
2013-07-02 20:12:00,62.0,-99.9,-100.00,North,-999,-999.0,-999.0,-999,-99.99,,,0.52,,2013-07-03 00:12:00,
2013-07-02 20:52:00,61.0,-99.9,-100.00,North,-999,-999.0,-999.0,-999,0.00,,,0.22,,2013-07-03 00:52:00,
2013-07-02 21:01:00,61.0,-99.9,-100.00,North,-999,-999.0,-999.0,-999,0.00,,,0.22,,2013-07-03 01:01:00,
2013-07-02 21:11:00,61.0,-99.9,-100.00,North,-999,-999.0,-999.0,-999,0.00,,,0.22,,2013-07-03 01:11:00,
2013-07-02 21:15:00,61.0,-99.9,-100.00,North,-999,-999.0,-999.0,-999,0.02,,,0.24,,2013-07-03 01:15:00,
2013-07-02 22:07:00,61.0,-99.9,-100.00,North,-999,-999.0,-999.0,-999,0.02,,,0.24,,2013-07-03 02:07:00,
2013-07-02 23:02:00,61.0,-99.9,-100.00,North,-999,-999.0,-999.0,-999,0.05,,,0.29,,2013-07-03 03:02:00,
2013-07-02 23:14:00,61.0,-99.9,-100.00,North,-999,-999.0,-999.0,-999,0.05,,,0.29,,2013-07-03 03:14:00,